May 28, 2022

Time Code Weather Temp. Visibility Ceiling Wind METAR/SPECI
6:00 am
V
55 °F 6¼ mi+ - 010° 010° 5 kt METAR LFBC 280400Z AUTO 01005KT CAVOK 13/12 Q1020
5:30 am
V
55 °F 6¼ mi+ - 010° 010° 4 kt METAR LFBC 280330Z AUTO 01004KT CAVOK 13/12 Q1020
5:00 am
V
55 °F 6¼ mi+ - 010° 010° 4 kt METAR LFBC 280300Z AUTO 01004KT CAVOK 13/12 Q1021
4:30 am
V
55 °F 6¼ mi+ - 010° 010° 4 kt METAR LFBC 280230Z AUTO 01004KT CAVOK 13/12 Q1021
4:00 am
V
57 °F 6¼ mi+ - 010° 010° 6 kt METAR LFBC 280200Z AUTO 01006KT CAVOK 14/12 Q1021
3:30 am
V
57 °F 6¼ mi+ - 020° 020° 6 kt METAR LFBC 280130Z AUTO 02006KT CAVOK 14/13 Q1022
3:00 am
V
59 °F 6¼ mi+ - 020° 020° 6 kt METAR LFBC 280100Z AUTO 02006KT CAVOK 15/13 Q1022
2:30 am
V
59 °F 6¼ mi+ - 010° 010° 6 kt METAR LFBC 280030Z AUTO 01006KT CAVOK 15/13 Q1022
2:00 am
V
59 °F 6¼ mi+ - 010° 010° 6 kt METAR LFBC 280000Z AUTO 01006KT CAVOK 15/14 Q1022
1:30 am
V
59 °F 6¼ mi+ - 360° 360° 5 kt METAR LFBC 272330Z AUTO 36005KT CAVOK 15/14 Q1023
1:00 am
V
59 °F 6¼ mi+ - 350° 350° 6 kt METAR LFBC 272300Z AUTO 35006KT CAVOK 15/14 Q1023
12:30 am
V
59 °F 6¼ mi+ - 340° 340° 5 kt METAR LFBC 272230Z AUTO 34005KT CAVOK 15/14 Q1023
12:00 am
V
59 °F 6¼ mi+ - 340° 340° 6 kt METAR LFBC 272200Z AUTO 34006KT CAVOK 15/14 Q1023

May 27, 2022

Time Code Weather Temp. Visibility Ceiling Wind METAR/SPECI
11:30 pm
V
59 °F 6¼ mi+ - 340° 340° 6 kt METAR LFBC 272130Z AUTO 34006KT CAVOK 15/13 Q1024
11:00 pm
V
59 °F 6¼ mi+ - 340° 340° 6 kt METAR LFBC 272100Z AUTO 34006KT CAVOK 15/13 Q1024
10:30 pm
V
59 °F 6¼ mi+ - 340° 340° 6 kt METAR LFBC 272030Z AUTO 34006KT CAVOK 15/13 Q1024
10:00 pm
V
61 °F 6¼ mi+ - 340° 340° 6 kt METAR LFBC 272000Z AUTO 34006KT CAVOK 16/12 Q1024
9:30 pm
V
63 °F 6¼ mi+ - 340° 340° 8 kt METAR LFBC 271930Z AUTO 34008KT CAVOK 17/12 Q1024
9:00 pm
V
64 °F 6¼ mi+ - 340° 340° 7 kt METAR LFBC 271900Z AUTO 34007KT CAVOK 18/13 Q1024
8:30 pm
V
66 °F 6¼ mi+ - 340° 340° 10 kt METAR LFBC 271830Z AUTO 34010KT 310V010 CAVOK 19/13 Q1024
8:00 pm
V
66 °F 6¼ mi+ - 330° 330° 10 kt METAR LFBC 271800Z AUTO 33010KT CAVOK 19/12 Q1023
7:30 pm
V
68 °F 6¼ mi+ - 330° 330° 10 kt METAR LFBC 271730Z AUTO 33010KT 300V360 CAVOK 20/12 Q1023
7:00 pm
V
68 °F 6¼ mi+ - 330° 330° 12 kt METAR LFBC 271700Z AUTO 33012KT CAVOK 20/12 Q1023
6:30 pm
V
68 °F 6¼ mi+ - 330° 330° 11 kt METAR LFBC 271630Z AUTO 33011KT 280V010 CAVOK 20/12 Q1024
6:00 pm
V
70 °F 6¼ mi+ - 310° 310° 13 kt METAR LFBC 271600Z AUTO 31013KT 280V340 CAVOK 21/12 Q1024
5:30 pm
V
70 °F 6¼ mi+ - 310° 310° 12 kt METAR LFBC 271530Z AUTO 31012KT 280V340 CAVOK 21/12 Q1024
5:00 pm
V
70 °F 6¼ mi+ - 310° 310° 12 kt METAR LFBC 271500Z AUTO 31012KT 280V340 CAVOK 21/13 Q1024
4:30 pm
V
72 °F 6¼ mi+ - 310° 310° 11 kt METAR LFBC 271430Z AUTO 31011KT 270V350 9999 FEW035 22/13 Q1025
4:00 pm
V
70 °F 6¼ mi+ - 320° 320° 11 kt METAR LFBC 271400Z AUTO 32011KT 280V350 9999 FEW035 21/13 Q1025 NOSIG
3:30 pm
V
72 °F 6¼ mi+ 3,400 ft 360° 360° 8 kt METAR LFBC 271330Z AUTO 36008KT 320V050 9999 BKN034 22/13 Q1025 NOSIG
3:00 pm
V
72 °F 6¼ mi+ 3,500 ft 320° 320° 11 kt METAR LFBC 271300Z AUTO 32011KT 290V350 9999 BKN035 22/13 Q1025 NOSIG
2:30 pm
V
70 °F 6¼ mi+ 3,300 ft 330° 330° 7 kt METAR LFBC 271230Z AUTO 33007KT 280V020 9999 OVC033 21/12 Q1026 NOSIG
2:00 pm
V
70 °F 6¼ mi+ 3,400 ft 300° 300° 8 kt METAR LFBC 271200Z AUTO 30008KT 270V340 9999 OVC034 21/12 Q1026 NOSIG
1:30 pm
V
72 °F 6¼ mi+ 3,700 ft 330° 330° 6 kt METAR LFBC 271130Z AUTO 33006KT 290V020 9999 OVC037 22/12 Q1026 NOSIG
1:00 pm
V
68 °F 6¼ mi+ 3,400 ft 350° 350° 7 kt METAR LFBC 271100Z AUTO 35007KT 310V040 9999 OVC034 20/11 Q1026 NOSIG
12:30 pm
V
68 °F 6¼ mi+ 3,400 ft 330° 330° 5 kt METAR LFBC 271030Z AUTO 33005KT 270V040 9999 OVC034 20/12 Q1027 NOSIG
12:00 pm
V
66 °F 6¼ mi+ 3,200 ft 360° 360° 6 kt METAR LFBC 271000Z AUTO 36006KT 330V030 9999 OVC032 19/12 Q1027
11:30 am
M
70 °F 6¼ mi+ 2,800 ft 040° 040° 7 kt METAR LFBC 270930Z AUTO 04007KT 340V100 9999 BKN028 BKN035 21/12 Q1027
11:00 am
V
66 °F 6¼ mi+ 3,800 ft 040° 040° 7 kt METAR LFBC 270900Z AUTO 04007KT 360V090 9999 FEW022 BKN038 19/12 Q1027
10:30 am
V
64 °F 6¼ mi+ 3,800 ft 030° 030° 8 kt METAR LFBC 270830Z AUTO 03008KT 9999 OVC038 18/12 Q1027
10:00 am
V
63 °F 6¼ mi+ 3,800 ft 030° 030° 6 kt METAR LFBC 270800Z AUTO 03006KT 9999 OVC038 17/13 Q1027
9:30 am
V
61 °F 6¼ mi+ 3,800 ft 040° 040° 5 kt METAR LFBC 270730Z AUTO 04005KT 010V080 9999 OVC038 16/13 Q1027
9:00 am
V
59 °F 6¼ mi+ 3,800 ft 030° 030° 4 kt METAR LFBC 270700Z AUTO 03004KT 360V060 9999 OVC038 15/13 Q1027
8:30 am
V
57 °F 6¼ mi+ 3,800 ft 030° 030° 5 kt METAR LFBC 270630Z AUTO 03005KT 9999 OVC038 14/13 Q1027
8:00 am
V
55 °F 6¼ mi+ 3,700 ft 040° 040° 3 kt METAR LFBC 270600Z AUTO 04003KT 9999 OVC037 13/13 Q1027
7:30 am
V
54 °F 6¼ mi+ 3,600 ft 030° 030° 2 kt METAR LFBC 270530Z AUTO 03002KT 9999 OVC036 12/12 Q1027
7:00 am
V
50 °F 6¼ mi+ 3,700 ft 350° 350° 1 kt METAR LFBC 270500Z AUTO 35001KT 9999 OVC037 10/10 Q1027
6:30 am
V
50 °F 6¼ mi+ 3,700 ft Var 000° 0 kt METAR LFBC 270430Z AUTO 00000KT 9999 OVC037 10/09 Q1027
6:00 am
I
46 °F 1⅛ mi 3,700 ft 030° 030° 1 kt METAR LFBC 270400Z AUTO 03001KT 9999 1800 BKN037 08/07 Q1027
5:30 am
I
50 °F 2¼ mi - 350° 350° 2 kt METAR LFBC 270330Z AUTO 35002KT 9999 3600 FEW036 10/10 Q1026
5:00 am
V
52 °F 6¼ mi+ - 330° 330° 3 kt METAR LFBC 270300Z AUTO 33003KT CAVOK 11/11 Q1026
4:30 am
I
54 °F 2¾ mi - 340° 340° 3 kt METAR LFBC 270230Z AUTO 34003KT 9999 4500 NSC 12/11 Q1026
4:00 am
V
54 °F 6¼ mi+ - 340° 340° 3 kt METAR LFBC 270200Z AUTO 34003KT CAVOK 12/11 Q1027
3:30 am
V
54 °F 6¼ mi+ - 350° 350° 3 kt METAR LFBC 270130Z AUTO 35003KT CAVOK 12/11 Q1027
3:00 am
V
54 °F 6¼ mi+ - 360° 360° 3 kt METAR LFBC 270100Z AUTO 36003KT CAVOK 12/12 Q1027
2:30 am
V
54 °F 6¼ mi+ - 350° 350° 4 kt METAR LFBC 270030Z AUTO 35004KT CAVOK 12/12 Q1027
2:00 am
V
55 °F 6¼ mi+ - 340° 340° 5 kt METAR LFBC 270000Z AUTO 34005KT CAVOK 13/12 Q1028
1:30 am
V
55 °F 6¼ mi+ - 340° 340° 5 kt METAR LFBC 262330Z AUTO 34005KT CAVOK 13/12 Q1028
1:00 am
V
55 °F 6¼ mi+ - 340° 340° 5 kt METAR LFBC 262300Z AUTO 34005KT CAVOK 13/12 Q1028
12:30 am
V
55 °F 6¼ mi+ - 340° 340° 5 kt METAR LFBC 262230Z AUTO 34005KT CAVOK 13/12 Q1028
12:00 am
V
57 °F 6¼ mi+ - 340° 340° 5 kt METAR LFBC 262200Z AUTO 34005KT CAVOK 14/12 Q1028

May 26, 2022

Time Code Weather Temp. Visibility Ceiling Wind METAR/SPECI
11:30 pm
V
57 °F 6¼ mi+ - 340° 340° 6 kt METAR LFBC 262130Z AUTO 34006KT CAVOK 14/12 Q1028
11:00 pm
V
57 °F 6¼ mi+ - 340° 340° 5 kt METAR LFBC 262100Z AUTO 34005KT CAVOK 14/12 Q1028
10:30 pm
V
59 °F 6¼ mi+ 3,900 ft 330° 330° 5 kt METAR LFBC 262030Z AUTO 33005KT 9999 BKN039 15/12 Q1028
10:00 pm
V
61 °F 6¼ mi+ 4,000 ft 350° 350° 5 kt METAR LFBC 262000Z AUTO 35005KT 9999 OVC040 16/13 Q1027
9:30 pm
V
63 °F 6¼ mi+ 4,000 ft 340° 340° 6 kt METAR LFBC 261930Z AUTO 34006KT 9999 BKN040 17/13 Q1027
9:00 pm
V
63 °F 6¼ mi+ 4,000 ft 340° 340° 6 kt METAR LFBC 261900Z AUTO 34006KT 300V010 9999 OVC040 17/13 Q1027
8:30 pm
V
64 °F 6¼ mi+ 4,000 ft 340° 340° 7 kt METAR LFBC 261830Z AUTO 34007KT 300V030 9999 OVC040 18/12 Q1027
8:00 pm
V
64 °F 6¼ mi+ 4,000 ft 320° 320° 8 kt METAR LFBC 261800Z AUTO 32008KT 290V350 9999 OVC040 18/12 Q1027
7:30 pm
V
66 °F 6¼ mi+ 3,900 ft 340° 340° 9 kt METAR LFBC 261730Z AUTO 34009KT 300V010 9999 OVC039 19/12 Q1027
7:00 pm
V
66 °F 6¼ mi+ 4,000 ft 340° 340° 9 kt METAR LFBC 261700Z AUTO 34009KT 300V020 9999 OVC040 19/11 Q1027
6:30 pm
V
66 °F 6¼ mi+ 4,100 ft 320° 320° 9 kt METAR LFBC 261630Z AUTO 32009KT 290V350 9999 FEW026 OVC041 19/12 Q1027
6:00 pm
V
66 °F 6¼ mi+ 4,000 ft 340° 340° 9 kt METAR LFBC 261600Z AUTO 34009KT 300V010 9999 SCT025 SCT030 OVC040 19/12 Q1027
5:30 pm
V
68 °F 6¼ mi+ 3,800 ft 320° 320° 9 kt METAR LFBC 261530Z AUTO 32009KT 280V360 9999 SCT027 OVC038 20/13 Q1027
5:00 pm
V
68 °F 6¼ mi+ 3,900 ft 330° 330° 9 kt METAR LFBC 261500Z AUTO 33009KT 280V010 9999 FEW030 OVC039 20/12 Q1028
4:30 pm
V
66 °F 6¼ mi+ 4,100 ft 320° 320° 8 kt METAR LFBC 261430Z AUTO 32008KT 290V360 9999 FEW027 OVC041 19/12 Q1028
4:00 pm
V
66 °F 6¼ mi+ 3,400 ft 340° 340° 8 kt METAR LFBC 261400Z AUTO 34008KT 300V010 9999 FEW026 OVC034 19/12 Q1028
3:30 pm
V
66 °F 6¼ mi+ 3,400 ft 320° 320° 9 kt METAR LFBC 261330Z AUTO 32009KT 290V350 9999 FEW026 OVC034 19/12 Q1028
3:00 pm
V
66 °F 6¼ mi+ 3,500 ft 300° 300° 8 kt METAR LFBC 261300Z AUTO 30008KT 270V350 9999 FEW029 OVC035 19/12 Q1028
2:30 pm
M
66 °F 6¼ mi+ 2,800 ft 290° 290° 5 kt METAR LFBC 261230Z AUTO 29005KT 260V330 9999 BKN028 BKN033 OVC039 19/12 Q1028
2:00 pm
V
66 °F 6¼ mi+ 3,300 ft 320° 320° 6 kt METAR LFBC 261200Z AUTO 32006KT 290V360 9999 OVC033 19/12 Q1028
1:30 pm
V
66 °F 6¼ mi+ 3,600 ft 330° 330° 8 kt METAR LFBC 261130Z AUTO 33008KT 300V360 9999 OVC036 19/11 Q1028
1:00 pm
V
66 °F 6¼ mi+ 3,800 ft 330° 330° 7 kt METAR LFBC 261100Z AUTO 33007KT 290V360 9999 FEW031 OVC038 19/12 Q1029
12:30 pm
V
66 °F 6¼ mi+ 4,000 ft 330° 330° 7 kt METAR LFBC 261030Z AUTO 33007KT 290V020 9999 FEW027 OVC040 19/12 Q1028
12:00 pm
V
64 °F 6¼ mi+ 3,800 ft 330° 330° 6 kt METAR LFBC 261000Z AUTO 33006KT 260V010 9999 SCT026 OVC038 18/11 Q1029
11:30 am
M
64 °F 6¼ mi+ 2,400 ft 210° 210° 4 kt METAR LFBC 260930Z AUTO 21004KT 160V250 9999 BKN024 BKN029 OVC036 18/13 Q1028
11:00 am
M
64 °F 6¼ mi+ 2,300 ft Var Var 3 kt METAR LFBC 260900Z AUTO VRB03KT 9999 BKN023 BKN030 BKN035 18/12 Q1028
10:30 am
M
64 °F 6¼ mi+ 2,000 ft 020° 020° 4 kt METAR LFBC 260830Z AUTO 02004KT 320V060 9999 BKN020 BKN025 OVC041 18/13 Q1028
10:00 am
V
63 °F 6¼ mi+ 3,100 ft Var Var 3 kt METAR LFBC 260800Z AUTO VRB03KT 9999 FEW017 BKN031 OVC037 17/13 Q1028
9:30 am
M
59 °F 6¼ mi+ 2,800 ft 320° 320° 4 kt METAR LFBC 260730Z AUTO 32004KT 290V360 9999 OVC028 15/14 Q1028
9:00 am
V
61 °F 6¼ mi+ 4,100 ft 010° 010° 5 kt METAR LFBC 260700Z AUTO 01005KT 300V040 9999 SCT027 SCT035 OVC041 16/13 Q1028
8:30 am
V
59 °F 6¼ mi+ 4,200 ft Var Var 2 kt METAR LFBC 260630Z AUTO VRB02KT 9999 OVC042 15/13 Q1028
8:00 am
M
57 °F 6¼ mi+ 1,700 ft 030° 030° 2 kt METAR LFBC 260600Z AUTO 03002KT 9999 BKN017 BKN024 BKN029 14/13 Q1027
7:30 am
V
57 °F 6¼ mi+ 4,100 ft Var Var 2 kt METAR LFBC 260530Z AUTO VRB02KT 9999 FEW021 OVC041 14/13 Q1027
7:00 am
M
55 °F 6¼ mi+ 1,700 ft 070° 070° 3 kt METAR LFBC 260500Z AUTO 07003KT 9999 BKN017 BKN023 OVC043 13/12 Q1027
6:30 am
V
55 °F 6¼ mi+ 3,000 ft Var 000° 0 kt METAR LFBC 260430Z AUTO 00000KT 9999 FEW016 SCT021 BKN030 13/12 Q1027
6:00 am
M
55 °F 6¼ mi+ 2,800 ft 090° 090° 3 kt METAR LFBC 260400Z AUTO 09003KT 9999 SCT021 BKN028 OVC045 13/12 Q1027
5:30 am
V
57 °F 6¼ mi+ 4,200 ft Var 000° 0 kt METAR LFBC 260330Z AUTO 00000KT 9999 FEW020 OVC042 14/12 Q1026
5:00 am
V
57 °F 6¼ mi+ 4,500 ft 120° 120° 3 kt METAR LFBC 260300Z AUTO 12003KT 9999 OVC045 14/12 Q1027
4:30 am
V
59 °F 6¼ mi+ 4,300 ft 030° 030° 2 kt METAR LFBC 260230Z AUTO 03002KT 9999 SCT032 OVC043 15/13 Q1027
4:00 am
V
57 °F 6¼ mi+ 4,000 ft 010° 010° 4 kt METAR LFBC 260200Z AUTO 01004KT 9999 FEW020 OVC040 14/12 Q1027
3:30 am
V
55 °F 6¼ mi+ 3,900 ft Var 000° 0 kt METAR LFBC 260130Z AUTO 00000KT 9999 OVC039 13/12 Q1027
3:00 am
V
54 °F 6¼ mi+ 4,000 ft Var 000° 0 kt METAR LFBC 260100Z AUTO 00000KT 9999 FEW025 OVC040 12/10 Q1027
2:30 am
V
52 °F 6¼ mi+ 3,300 ft Var 000° 0 kt METAR LFBC 260030Z AUTO 00000KT 9999 FEW025 BKN033 OVC040 11/09 Q1027
2:00 am
V
52 °F 6¼ mi+ 4,300 ft Var 000° 0 kt METAR LFBC 260000Z AUTO 00000KT 9999 FEW032 BKN043 11/09 Q1027
Older data

Download our app

Easy access to all aviation weather on your mobile phone and tablet.
With many features not available on the website, like offline support and a personal airport list.

We and third parties follow your internet behavior on our website with cookies. If you continue, we assume you agree with our cookie policy. Learn more